This is the latest recevied weather packets stored in our database for station/object N3MFL. If no packets are shown the sender has not sent any weather packets the latest 10 day(s).
| Time | Temp. | Humidity | Pressure | Rain* | Wind** | Luminosity | Snow |
|---|---|---|---|---|---|---|---|
| 1776968283 | 18.89° C | 29% | 1010.5 hPa | 0 mm | - | 287 W/m² | - |
| 1776967974 | 18.33° C | 28% | 1010.4 hPa | 0 mm | - | 293 W/m² | - |
| 1776967671 | 18.89° C | 27% | 1010.6 hPa | 0 mm | - | 316 W/m² | - |
| 1776967366 | 18.33° C | 31% | 1010.6 hPa | 0 mm | - | 107 W/m² | - |
| 1776967064 | 18.89° C | 32% | 1010.7 hPa | 0 mm | - | 300 W/m² | - |
| 1776966761 | 18.33° C | 31% | 1010.7 hPa | 0 mm | - | 495 W/m² | - |
| 1776966456 | 17.78° C | 31% | 1010.7 hPa | 0 mm | - | 281 W/m² | - |
| 1776966153 | 18.33° C | 29% | 1010.7 hPa | 0 mm | - | 342 W/m² | - |
| 1776965853 | 18.33° C | 30% | 1010.6 hPa | 0 mm | - | 337 W/m² | - |
| 1776965552 | 18.33° C | 31% | 1010.7 hPa | 0 mm | - | 417 W/m² | - |
| 1776965251 | 17.78° C | 31% | 1010.7 hPa | 0 mm | - | 530 W/m² | - |
| 1776964946 | 17.78° C | 30% | 1010.9 hPa | 0 mm | - | 283 W/m² | - |
| 1776964645 | 17.78° C | 29% | 1010.7 hPa | 0 mm | - | 549 W/m² | - |
| 1776964340 | 17.22° C | 33% | 1010.9 hPa | 0 mm | - | 346 W/m² | - |
| 1776964034 | 17.78° C | 32% | 1011.2 hPa | 0 mm | - | 87 W/m² | - |
| 1776963729 | 17.78° C | 32% | 1011.4 hPa | 0 mm | - | 592 W/m² | - |
| 1776963428 | 17.78° C | 34% | 1011.1 hPa | 0 mm | - | 350 W/m² | - |
| 1776963126 | 17.22° C | 33% | 1011.3 hPa | 0 mm | - | 637 W/m² | - |
| 1776962821 | 17.22° C | 34% | 1011.1 hPa | 0 mm | - | 426 W/m² | - |
| 1776962516 | 17.22° C | 33% | 1011.3 hPa | 0 mm | - | 341 W/m² | - |
| 1776962215 | 17.78° C | 35% | 1011.4 hPa | 0 mm | - | 261 W/m² | - |
| 1776961911 | 17.78° C | 34% | 1011.1 hPa | 0 mm | - | 480 W/m² | - |
| 1776961609 | 17.22° C | 33% | 1011.4 hPa | 0 mm | - | 420 W/m² | - |
| 1776961308 | 17.22° C | 34% | 1011.3 hPa | 0 mm | - | 678 W/m² | - |
| 1776960998 | 17.22° C | 37% | 1011.3 hPa | 0 mm | - | 436 W/m² | - |
* Rain latest hour (hover to see other rain measurements)
** Current wind speed in m/s (hover to see current wind gust speed)